Starlink 30708

operational
NORAD ID: 57944 Int'l Des: 2023-148 Owner: SPXS Country: US Constellation: starlink
LEOCIRCULAR

About Starlink 30708

Description loading...

Live Position

Loading 3D Globe...

Upcoming Passes

Altitude History

Altitude vs Time

uPlot chart will show altitude changes over time

Two-Line Element Set

1 57944U 23148K 25351.85641406 -.00003236 00000-0 -97068-4 0 9997
2 57944 53.1614 44.3672 0001396 88.6911 271.4250 15.30228354125898
Epoch: Dec 17, 2025 • Age: 11 hours

Current Status

Altitude 491.3 km
Velocity 7.62 km/s
Sub-Earth Point -45.14°S, 157.83°E
Launch Date Sep 25, 2023
Age 2.2 years
Type internet

Technical Details

Classification Payload
Mass 730.00 kg
Dry Mass 700.00 kg
Total Mass 730.00 kg
Length 0.30 m
Diameter 4.10 m
Span 29.00 m
Shape Box + pan
Manufacturer SPXS
Bus Type Starlink V2M
Phase Status In Orbit
Owner/State SPXS/US

Large Constellations

Loading constellations...